Probability
45 45 45 39 35 32 26 26 26 26 35 35 29 29 29 29 29 32 19 26 23 29 26 19 26 29 32 19 19 13 13 16 10 10 16 13 23 19 13 13 10 16 10
29 29 29 32 32 29 26 29 29 29 35 35 32 26 26 29 29 29 29 26 29 29 29 19 23 19 29 26 29 16 16 19 10 16 19 13 16 19 23 16 3 3 6
26 26 29 26 29 26 19 23 26 26 26 29 29 26 23 23 26 29 29 29 29 29 32 29 26 29 23 19 26 23 19 3 13 10 6 19 6 6 16 13 3 16 3
29 29 29 26 23 23 19 23 19 26 26 26 23 23 23 19 19 23 23 29 29 26 26 26 23 19 23 23 23 26 29 19 13 13 3 13 13 3 10 6 6 6 6
23 26 29 26 23 23 19 19 19 23 23 23 23 23 23 23 19 23 23 23 26 23 23 23 23 16 13 19 10 23 26 19 16 13 10 10 10 10 6 6 3 10 13
23 23 26 26 26 23 19 19 19 19 19 23 19 19 23 13 6 3 13 23 23 26 19 19 13 10 10 3 0 3 6 16 23 23 16 13 13 13 13 0 6 10 10
23 29 26 26 23 19 19 19 19 19 23 23 23 19 19 10 3 3 0 19 16 19 19 23 13 10 10 16 6 0 0 0 3 16 16 16 16 16 13 6 13 13 6
19 26 26 26 26 23 19 19 19 16 19 23 19 19 23 10 6 0 0 3 13 16 23 16 23 13 10 13 13 10 16 13 0 3 6 16 16 10 6 13 13 13 13
16 26 29 26 26 29 23 23 19 16 16 16 16 16 23 10 6 0 0 13 19 19 16 19 16 19 10 3 6 16 16 16 0 0 3 3 0 0 0 0 3 10 10
19 19 26 26 26 26 19 19 16 16 16 16 16 16 19 19 3 0 0 10 16 23 23 19 3 3 0 0 3 13 16 13 6 3 0 0 0 0 0 0 0 6 10
19 19 26 26 26 26 26 23 23 19 16 16 16 16 19 16 3 3 0 3 13 13 13 10 6 0 0 0 0 10 13 10 10 13 10 6 3 3 0 0 0 0 3
19 23 26 26 26 26 26 23 23 23 23 23 23 13 16 13 3 3 0 0 3 13 19 16 6 0 0 0 0 0 0 0 3 10 10 6 3 3 3 3 0 0 10
23 19 23 23 23 23 26 23 19 19 19 13 13 13 16 16 6 3 0 0 0 3 19 3 0 0 0 0 0 0 0 3 6 3 3 3 0 3 3 6 3 6 3
16 19 19 23 23 23 23 19 19 19 19 13 13 13 13 13 13 3 3 3 0 0 0 0 0 0 0 0 0 0 0 3 6 3 3 3 6 3 3 0 0 0 0
16 16 16 19 19 23 16 16 16 16 13 10 10 10 10 10 10 3 3 3 3 3 0 3 3 0 0 3 3 3 0 3 0 0 3 6 6 6 10 3 0 0 0
13 13 10 10 16 13 13 10 0 3 3 3 3 6 10 6 0 0 0 0 0 0 0 3 3 3 0 3 0 0 3 6 6 6 3 3 3 6 3 6 0 0 0
13 10 10 6 6 10 10 10 6 3 0 0 0 0 3 0 0 0 0 0 0 0 0 0 3 3 0 0 0 3 3 3 3 6 0 3 3 3 3 6 3 3 0
6 6 6 10 6 6 10 10 10 6 6 3 0 0 0 0 0 0 0 0 0 0 0 0 3 0 0 0 0 0 3 3 3 3 3 3 0 0 0 3 3 3 3
3 3 3 10 10 10 10 10 6 6 6 6 6 0 0 0 0 0 0 0 0 0 0 0 0 0 0 0 0 0 0 0 3 3 3 3 0 0 0 0 0 0 0
0 0 3 3 3 3 6 10 10 10 10 10 10 6 0 0 0 0 0 0 0 0 0 0 0 0 0 0 0 0 3 3 3 3 3 3 3 3 0 0 0 0 0
0 0 0 3 3 3 3 3 6 6 6 6 10 10 6 6 0 0 0 0 0 0 0 0 0 3 3 3 3 3 3 3 3 3 3 3 3 0 0 0 0 0 0
0 0 0 3 3 3 3 3 3 6 6 6 6 6 0 0 0 3 3 3 3 0 0 0 0 0 0 0 3 3 3 0 0 0 0 0 0 0 0 0 0 0 0
0 0 0 3 3 3 3 3 6 6 6 6 6 6 3 0 0 0 0 3 3 3 3 3 3 0 0 0 0 0 0 0 0 0 3 3 0 0 0 3 0 0 0
0 0 0 3 3 6 6 6 6 6 6 6 6 6 0 0 0 0 0 0 0 0 0 0 0 0 0 0 0 0 0 0 0 0 0 3 3 3 0 0 0 0 0
0 0 0 3 3 3 6 6 6 6 6 6 6 3 0 0 0 0 0 0 0 0 0 0 0 0 0 0 0 0 0 0 0 0 0 3 3 3 3 3 0 0 3
0 0 0 3 3 3 3 6 6 6 6 6 3 3 0 0 0 0 0 0 0 0 0 0 0 0 0 0 0 0 0 0 0 0 0 0 3 3 3 3 0 3 3
Height
5812 5813 5812 5813 5813 5813 5812 5812 5812 5812 5812 5812 5812 5811 5811 5811 5811 5812 5813 5814 5815 5815 5816 5817 5818 5819 5819 5820 5821 5822 5822 5823 5824 5824 5824 5824 5825 5825 5825 5825 5825 5826 5826
5806 5806 5806 5806 5806 5806 5807 5807 5807 5806 5806 5806 5806 5806 5806 5806 5806 5806 5807 5808 5809 5809 5810 5811 5812 5813 5814 5815 5815 5816 5817 5817 5818 5819 5819 5819 5819 5819 5820 5820 5820 5820 5820
5799 5799 5799 5800 5800 5800 5800 5800 5800 5801 5801 5801 5801 5800 5800 5800 5801 5801 5801 5802 5802 5803 5804 5805 5805 5806 5807 5808 5809 5810 5810 5811 5812 5812 5813 5813 5813 5814 5814 5814 5814 5814 5814
5792 5792 5792 5793 5793 5793 5794 5794 5794 5794 5794 5795 5794 5794 5794 5795 5795 5795 5795 5795 5796 5797 5797 5798 5799 5800 5801 5802 5802 5803 5804 5804 5805 5805 5806 5807 5807 5807 5808 5808 5808 5808 5808
5785 5785 5786 5786 5786 5786 5787 5787 5787 5788 5788 5788 5788 5788 5788 5788 5789 5789 5789 5789 5790 5790 5791 5792 5792 5793 5794 5795 5795 5796 5797 5797 5798 5799 5800 5800 5800 5801 5801 5801 5801 5801 5801
5779 5779 5779 5779 5779 5780 5780 5780 5781 5782 5782 5782 5782 5782 5782 5782 5783 5783 5783 5783 5783 5784 5784 5785 5786 5786 5787 5788 5788 5789 5790 5790 5791 5791 5792 5793 5793 5794 5794 5794 5794 5795 5795
5771 5772 5772 5772 5772 5773 5773 5773 5774 5775 5776 5776 5776 5776 5775 5776 5776 5776 5776 5776 5777 5778 5778 5778 5779 5780 5780 5781 5781 5782 5782 5783 5784 5784 5785 5785 5785 5787 5787 5787 5787 5787 5788
5764 5765 5764 5765 5765 5766 5766 5767 5767 5768 5769 5769 5769 5769 5768 5769 5769 5769 5770 5770 5770 5771 5771 5771 5772 5772 5773 5774 5774 5775 5775 5776 5776 5777 5777 5778 5778 5779 5779 5780 5780 5780 5780
5758 5758 5758 5758 5759 5759 5760 5760 5761 5761 5761 5761 5761 5761 5761 5761 5762 5762 5762 5763 5763 5764 5764 5765 5765 5765 5766 5767 5767 5768 5768 5768 5768 5769 5770 5771 5771 5772 5772 5772 5772 5772 5772
5752 5752 5752 5752 5752 5753 5753 5754 5754 5754 5754 5754 5754 5753 5754 5754 5754 5755 5755 5756 5756 5757 5757 5757 5757 5758 5758 5759 5759 5760 5760 5761 5761 5762 5762 5763 5763 5764 5764 5765 5764 5764 5765
5746 5746 5746 5746 5746 5747 5747 5747 5747 5746 5746 5746 5747 5746 5747 5747 5747 5748 5748 5748 5749 5749 5749 5749 5749 5750 5750 5750 5751 5752 5752 5752 5753 5753 5754 5755 5755 5756 5756 5756 5756 5756 5757
5740 5740 5740 5740 5740 5740 5740 5740 5740 5740 5740 5740 5740 5740 5740 5740 5740 5740 5741 5741 5741 5741 5741 5741 5741 5742 5742 5742 5742 5743 5743 5744 5744 5745 5745 5746 5747 5747 5747 5747 5747 5748 5748
5733 5734 5734 5734 5734 5734 5734 5734 5734 5734 5733 5734 5734 5734 5733 5733 5733 5733 5733 5733 5733 5733 5733 5733 5733 5733 5733 5733 5734 5734 5735 5735 5735 5736 5737 5737 5738 5738 5739 5739 5739 5739 5739
5727 5728 5728 5729 5729 5728 5728 5728 5728 5728 5728 5727 5727 5727 5727 5726 5726 5725 5725 5725 5724 5724 5725 5725 5725 5724 5724 5725 5725 5725 5725 5726 5726 5727 5728 5728 5729 5729 5730 5730 5730 5731 5731
5721 5722 5722 5722 5723 5723 5722 5722 5722 5722 5722 5722 5721 5720 5720 5719 5719 5718 5717 5717 5716 5716 5716 5716 5716 5716 5716 5716 5716 5716 5716 5716 5717 5718 5718 5719 5719 5720 5720 5721 5721 5722 5722
5715 5715 5716 5716 5716 5716 5716 5716 5716 5716 5715 5715 5714 5713 5713 5712 5712 5711 5710 5709 5708 5708 5708 5707 5707 5707 5706 5706 5706 5706 5706 5707 5708 5708 5709 5709 5710 5710 5711 5711 5712 5712 5713
5708 5709 5709 5710 5710 5710 5710 5710 5709 5709 5709 5708 5707 5706 5706 5705 5704 5703 5702 5701 5700 5700 5699 5698 5698 5697 5697 5697 5697 5697 5697 5697 5698 5698 5699 5699 5700 5700 5701 5701 5702 5703 5703
5702 5702 5703 5703 5703 5703 5703 5703 5702 5702 5702 5701 5700 5699 5698 5698 5697 5695 5694 5693 5692 5691 5691 5690 5689 5689 5688 5688 5687 5687 5687 5687 5688 5688 5689 5689 5690 5690 5691 5691 5692 5692 5693
5695 5696 5696 5696 5696 5696 5696 5695 5695 5695 5694 5693 5692 5692 5691 5689 5688 5687 5686 5686 5685 5684 5683 5682 5682 5681 5680 5679 5679 5678 5678 5678 5678 5679 5679 5679 5679 5680 5680 5681 5681 5682 5683
5689 5689 5689 5689 5689 5689 5689 5688 5688 5687 5686 5685 5685 5684 5683 5682 5680 5680 5679 5678 5677 5676 5675 5675 5674 5673 5672 5671 5671 5670 5669 5669 5669 5669 5669 5669 5669 5670 5671 5671 5671 5672 5673
5682 5682 5682 5682 5682 5682 5681 5681 5680 5680 5679 5678 5678 5677 5675 5674 5673 5672 5671 5670 5669 5669 5668 5667 5666 5665 5664 5663 5662 5661 5661 5660 5659 5659 5659 5659 5660 5660 5660 5661 5662 5662 5663
5676 5676 5676 5676 5675 5674 5674 5673 5673 5672 5672 5671 5670 5669 5668 5666 5665 5665 5664 5663 5662 5661 5660 5659 5658 5657 5656 5655 5654 5653 5652 5651 5651 5650 5650 5650 5650 5650 5651 5651 5652 5652 5653
5670 5670 5669 5669 5668 5667 5667 5666 5665 5665 5664 5663 5662 5661 5660 5659 5658 5657 5656 5655 5654 5653 5652 5651 5650 5649 5648 5647 5646 5645 5644 5643 5642 5641 5641 5641 5641 5641 5641 5641 5642 5642 5642
5663 5663 5663 5662 5661 5660 5659 5659 5658 5657 5656 5655 5653 5653 5652 5651 5650 5649 5648 5647 5647 5646 5645 5643 5642 5641 5640 5639 5638 5636 5635 5634 5633 5632 5632 5631 5631 5631 5631 5632 5632 5632 5632
5656 5656 5655 5655 5654 5653 5653 5652 5651 5650 5649 5647 5646 5645 5644 5643 5643 5642 5641 5640 5639 5637 5636 5635 5634 5633 5632 5631 5630 5628 5627 5626 5624 5623 5622 5622 5622 5622 5622 5622 5622 5621 5621
5648 5648 5648 5647 5647 5646 5645 5644 5643 5642 5641 5640 5639 5638 5637 5636 5636 5635 5634 5632 5631 5630 5629 5627 5626 5625 5624 5623 5621 5620 5619 5617 5616 5615 5613 5613 5613 5612 5612 5612 5611 5611 5611
Wind_Speed
24 24 22 22 22 21 21 20 20 20 20 20 19 19 19 20 20 20 21 20 21 21 21 21 21 21 21 21 21 21 21 20 20 20 20 20 19 19 20 20 20 20 20
24 24 23 23 23 22 22 22 21 21 21 21 21 20 20 20 20 20 20 20 21 21 21 22 22 22 22 22 22 22 22 22 22 22 21 21 20 20 21 21 21 21 22
24 25 24 24 24 23 22 22 23 22 22 22 22 21 20 21 20 20 21 21 21 22 22 23 23 23 24 24 24 23 23 23 23 23 22 22 22 22 23 23 23 23 23
24 24 24 24 24 24 24 23 23 23 23 23 22 21 21 21 20 20 21 22 22 23 23 23 23 24 24 25 24 24 24 24 24 24 24 23 24 24 23 23 24 24 24
23 23 23 23 24 25 25 24 24 23 22 22 22 21 21 21 21 21 21 22 22 22 23 23 23 24 23 24 24 24 24 24 24 25 25 25 25 24 24 24 24 24 24
24 23 23 24 25 25 24 24 23 23 22 22 22 21 21 21 21 21 21 22 22 22 22 23 23 23 23 24 24 24 25 24 24 25 25 25 25 25 25 25 24 24 24
23 23 24 25 25 24 24 24 23 23 22 22 21 21 22 22 21 21 21 21 21 22 22 23 23 23 24 24 24 24 25 25 25 24 24 24 24 25 25 25 25 25 26
23 23 23 24 24 23 23 24 23 24 24 23 22 23 22 22 22 22 22 22 22 22 22 23 23 24 24 25 25 25 25 25 26 25 25 25 24 24 25 26 26 26 26
22 22 22 22 22 21 22 22 23 24 24 24 24 24 23 24 23 22 22 23 23 23 23 23 24 24 25 26 26 26 25 26 26 26 26 25 25 25 26 25 25 26 26
21 21 20 20 20 20 21 22 23 23 24 24 23 23 23 23 23 23 23 24 24 24 24 25 25 25 26 26 26 26 26 26 26 27 27 26 26 26 26 26 26 26 27
20 20 20 20 20 21 21 22 22 23 23 22 22 22 22 22 22 22 23 24 24 24 25 26 26 26 27 27 27 27 27 28 28 28 27 27 27 27 27 27 28 27 27
21 20 20 20 21 21 20 21 21 21 21 20 21 22 22 22 22 22 23 24 24 25 25 26 27 27 27 28 28 28 28 28 28 28 28 28 28 29 29 29 28 28 28
20 20 20 20 20 21 21 20 21 21 21 20 21 21 21 22 22 23 24 24 25 25 26 26 27 27 27 27 28 29 29 29 29 29 29 29 29 30 30 29 29 28 28
20 20 20 20 20 20 20 20 20 21 20 20 21 21 21 22 22 23 23 24 25 26 26 27 27 27 27 28 29 29 29 30 30 30 30 30 30 29 29 29 28 28 28
21 21 21 20 20 20 20 21 21 22 22 22 22 22 22 22 22 23 23 23 24 25 25 26 27 27 28 29 30 30 30 30 30 30 30 30 30 30 30 29 29 29 29
22 21 21 20 20 20 21 22 22 22 23 23 23 23 23 23 23 23 24 24 25 25 25 26 27 27 28 29 29 29 29 30 30 31 31 31 30 30 30 31 30 30 30
21 21 21 21 21 21 21 22 23 23 23 23 23 24 24 24 24 24 24 25 25 25 25 26 26 26 28 28 29 29 29 30 30 31 31 31 31 31 32 32 32 31 31
20 21 21 21 22 22 22 23 22 22 23 23 23 24 25 26 26 26 25 24 24 24 24 24 25 26 27 27 28 28 29 29 30 30 31 31 31 31 32 33 32 32 31
21 21 21 22 22 23 22 22 23 22 23 23 23 24 25 25 25 25 24 23 23 23 23 24 24 25 25 26 27 28 29 29 29 30 30 31 31 31 31 32 31 31 31
21 22 22 23 23 24 23 23 22 23 23 23 23 23 24 24 23 24 24 24 24 24 24 25 25 25 26 26 26 27 28 28 29 30 30 30 30 30 30 30 30 31 31
20 20 21 22 22 22 22 22 23 23 22 23 23 23 24 24 24 24 23 23 23 24 24 24 25 26 26 27 27 27 28 28 29 29 30 30 30 31 30 30 30 31 31
20 20 20 20 21 21 22 22 22 22 23 24 25 25 25 25 24 24 24 24 23 23 24 23 24 25 25 26 27 27 27 28 28 29 29 30 29 30 30 30 30 30 31
20 20 20 19 20 21 22 22 23 23 24 25 25 25 25 25 24 24 23 24 24 24 25 25 25 24 25 25 25 26 26 27 27 27 28 29 30 30 29 29 30 30 31
20 20 20 20 20 21 22 22 23 23 24 25 25 24 25 25 25 25 25 25 25 25 25 25 24 23 24 24 25 25 26 26 27 28 28 28 29 29 29 29 30 31 31
21 21 21 21 21 21 22 22 22 22 22 23 24 24 24 24 24 23 24 25 24 24 24 24 24 24 25 26 26 26 26 26 27 27 27 27 28 28 29 30 30 31 32
22 21 21 21 22 22 22 23 23 23 23 23 23 23 23 23 22 22 23 23 23 23 24 24 24 25 25 25 25 26 26 26 26 26 27 27 28 28 28 29 30 31 31
Wind_Direction
264 264 264 265 269 270 267 266 267 267 267 267 268 268 266 263 260 257 255 254 254 254 256 254 253 254 253 252 252 253 255 256 257 259 262 262 261 263 263 262 262 263 263
264 266 266 265 267 267 265 264 266 268 267 266 266 266 265 263 260 258 256 256 255 255 255 253 253 254 254 253 254 255 257 258 259 261 262 261 262 263 264 265 265 265 266
264 266 266 268 268 266 264 264 265 266 265 265 265 265 263 261 260 259 258 256 257 256 256 255 254 254 254 255 255 256 258 258 259 261 261 262 262 263 264 266 265 266 267
267 266 268 266 265 264 265 265 264 264 263 263 264 264 262 263 262 261 259 258 257 257 257 256 256 256 256 257 257 257 258 260 260 260 261 262 263 263 264 266 268 266 267
265 267 267 265 264 263 263 264 264 262 262 262 262 262 263 263 263 262 261 260 259 257 257 258 258 257 258 259 258 259 260 261 260 260 260 261 262 262 263 267 268 268 268
264 265 265 264 264 264 264 264 263 262 263 262 260 261 263 262 262 262 259 260 259 258 258 259 259 258 259 260 260 260 261 260 259 259 260 260 260 261 263 265 266 267 269
263 264 264 261 262 264 263 263 262 261 262 262 261 262 263 261 262 262 259 258 258 259 259 259 258 259 261 261 261 260 260 259 260 260 260 261 259 260 263 265 266 266 267
265 265 265 259 260 260 260 259 260 261 261 261 262 265 263 262 261 260 259 258 257 257 258 258 258 259 260 260 261 262 261 261 260 261 262 262 261 261 263 265 265 266 267
264 264 264 261 259 257 258 258 260 260 260 262 265 264 263 261 260 260 259 259 258 258 258 259 260 261 260 261 261 261 261 261 261 262 262 262 261 262 264 267 269 267 266
265 263 260 258 257 258 258 258 261 262 262 262 265 264 263 261 260 259 261 260 260 260 260 261 262 263 263 263 263 262 261 261 262 262 263 262 262 263 264 266 268 269 267
265 262 260 258 258 259 259 260 262 262 260 262 264 264 262 260 260 262 262 261 259 260 261 262 264 264 265 265 263 262 262 262 262 263 263 264 264 264 264 266 268 268 268
262 259 258 259 258 258 259 260 263 262 260 263 266 266 264 262 262 263 263 263 262 263 264 265 265 264 264 264 263 262 262 262 262 263 264 266 266 266 265 266 267 267 267
259 259 260 261 260 261 260 260 263 264 263 265 269 270 267 265 265 266 265 264 265 266 267 266 266 266 265 264 263 263 263 263 264 264 264 266 267 267 266 266 266 267 268
258 260 262 262 263 263 262 264 266 267 268 268 270 270 269 267 268 268 267 267 267 268 269 268 268 267 266 265 265 264 264 265 266 265 265 266 267 268 267 266 266 268 268
261 262 264 264 262 263 264 265 267 268 269 270 273 271 269 270 271 271 270 270 271 270 271 271 270 269 268 267 266 266 265 264 265 265 265 267 268 267 268 268 267 267 268
262 262 262 263 266 266 267 268 269 270 271 272 274 275 271 272 273 274 274 273 272 272 272 272 270 269 268 267 267 266 266 265 264 265 266 266 267 267 267 267 267 266 265
260 260 261 263 266 270 270 270 270 270 271 272 274 275 275 276 277 275 275 274 274 274 275 274 272 270 269 270 269 268 267 266 266 266 266 266 266 266 266 266 266 266 265
261 261 262 265 268 271 272 272 273 272 271 273 275 277 278 279 279 277 277 277 276 277 276 275 273 272 271 271 271 270 269 268 267 267 266 266 266 265 265 266 266 264 264
263 265 267 268 270 271 272 271 272 274 275 275 275 276 278 278 278 276 276 276 276 276 275 274 274 273 274 275 275 274 272 271 269 268 267 266 266 266 266 266 265 262 262
264 266 268 270 271 271 270 270 272 275 277 276 277 279 280 280 279 277 275 273 273 274 275 274 273 274 274 276 277 277 275 273 271 269 269 268 266 267 266 265 264 262 262
268 268 269 270 272 270 269 271 272 273 273 274 277 278 280 280 280 278 277 275 273 273 274 275 273 274 274 275 276 277 276 274 273 271 271 269 267 266 265 264 263 263 262
269 271 272 272 271 271 271 272 272 271 272 274 275 275 277 278 277 278 277 276 274 274 274 275 276 274 274 275 275 275 276 275 272 271 269 268 267 267 265 265 264 264 264
271 271 273 275 276 275 275 274 274 273 275 275 275 274 274 275 275 276 276 276 276 276 277 278 279 278 277 277 277 277 277 276 274 272 271 269 268 268 266 265 265 264 265
272 273 275 277 279 279 277 276 276 276 276 277 277 275 274 275 274 274 275 277 277 277 277 278 276 275 277 278 279 280 279 277 275 274 273 271 270 268 267 267 266 266 267
272 273 275 276 278 279 279 278 278 278 279 280 278 277 276 276 276 274 275 276 277 277 277 277 276 276 278 279 279 280 281 279 277 275 274 272 271 271 270 269 269 268 268
272 273 273 274 277 279 280 281 281 281 281 282 282 280 276 274 276 278 279 278 279 279 279 279 279 279 280 280 280 281 281 281 279 278 276 275 273 272 271 270 270 270 269